To NAV CANADA Home Page Login to a new session Search on AWWS site Feedback and Comments Disclaimer Vers la page française équivalente Tips FAQ What's new on the site To the Forecasts and Observations / NOTAM section To "File a Flight Plan" website Publications and other links Update of the User's profile FIC Telephone Numbers My Weather Data Folder Route Weather Data Regional Weather Data Local Weather Data To the Forecasts and Observations / NOTAM section
Request Generated 08/30/2016 at 01:12:07 UTC . Weather information available at that time is displayed.

METAR/TAF

FLIN FLON/MB    (show WxCam)

LWIS CYFO 300100Z AUTO 33006KT 310V010 16/08 A3012=
LWIS CYFO 300000Z AUTO 29011G18KT 260V350 18/07 A3010=
METAR CYFO 292300Z 32009G16KT 15SM FEW047 17/08 A3009 RMK SC2 LAST
OBS/NEXT 30 1100 UTC SLP198 DENSITY ALT 1300FT=

CYFO - No TAF is issued for this station

Your time UTC time
Weather data provided by Environment Canada and NAV CANADA